Location: *
(0.1100°N, 5.5000°E)
Time: 09:31:39
(UTC+00:00)

SJ 16-02 - Pass Details

Date: 07 December 2022
Orbit: 602 x 612 km, 75.0° (Epoch: 07 February)

Event Time Altitude Azimuth Distance (km) Brightness Sun altitude
Rises 18:21:22 0° 357° (N) 2,857 4.6 -12.0°
Reaches altitude 10° 18:23:38 10° 2° (N) 1,955 3.7 -12.5°
Maximum altitude 18:27:53 52° 79° (ENE) 760 1.4 -13.5°
Drops below altitude 10° 18:32:08 10° 155° (SSE) 1,958 3.9 -14.4°
Sets 18:34:25 0° 160° (SSE) 2,862 4.8 -15.0°
